Vertical_Velocity
-1 -0 1 -1 -1 -0 2 -6 -0 -19 0 -6 -1 -1 -2 -2 -0 1 -0 0 0 1 -2 -2 0 -2 -2 -4 -4 -0 -1 -1 -0 -2 -2 -1 -1 0 -0 -1 -1 0 -2 -0
-2 -1 1 0 -1 0 -0 -2 2 3 -11 1 1 1 1 -0 1 1 1 -1 -0 -0 -0 -1 -0 0 -3 -4 -2 -1 -3 -2 -1 -1 -4 -0 -1 -1 1 -1 -1 0 1 -1
-3 -0 -1 -2 -6 -1 -1 -0 -5 -1 -8 0 2 1 1 1 0 -0 -0 -0 -1 -2 -1 0 -1 -2 -4 -2 0 -1 -2 -2 0 -0 -4 -3 -2 -1 -1 -2 -0 -0 -0 1
-1 -1 -1 -18 -0 -2 -4 -2 0 1 0 -1 -1 1 -0 -0 -0 -0 -1 -1 -1 0 0 -0 -3 -3 -3 -2 0 -2 -3 -3 -3 -2 -2 -2 -3 -1 -0 -1 -1 -2 -2 1
-0 -1 -10 -3 -1 -4 -6 -7 -0 -1 1 1 1 1 1 1 -1 0 1 0 -1 1 0 -2 -0 0 -2 -2 -3 -3 -2 -2 -2 1 -3 -3 -3 -3 -2 -2 -0 -0 0 -2
1 1 -2 -4 -1 0 -2 -8 -1 -2 -0 -1 1 -1 -2 0 1 1 -1 -0 -2 -4 -4 0 -1 -3 -3 -3 -2 -2 -2 -2 -2 -1 0 -2 -1 -2 -4 1 -2 -1 -1 2
-0 -1 -9 -3 -2 0 -6 -13 0 0 -0 -1 -2 -1 0 0 1 1 0 -1 -3 -3 -1 2 1 2 -2 1 -1 -1 -3 1 -0 1 -0 1 -3 0 -3 -2 -1 -0 -1 -1
2 2 -13 -2 0 -4 -6 4 -2 -1 -1 -2 -1 0 1 1 -1 -2 -3 -5 -4 -4 -4 -1 0 -1 -5 -0 1 -1 -5 -1 -1 -1 -1 -1 -1 -1 1 1 -1 -1 -2 -4
-12 -15 -1 1 -1 -1 -1 -4 -1 -0 -0 -1 -1 -1 -1 -1 -1 -1 -2 -3 -1 -1 -3 3 -4 1 -3 -1 -1 -3 -4 -1 -3 -4 -0 0 -2 -3 -4 2 1 -2 -0 -4
-1 -2 -0 1 2 1 -1 -1 -0 -0 -1 -0 -2 -1 -0 -0 -2 -4 -4 -3 -3 -3 -2 -5 -2 -0 3 -2 -2 0 -5 -3 -3 -4 -3 1 0 1 1 1 -1 1 -2 -0
-3 2 -1 0 3 -2 -1 -0 -2 -1 -0 -1 -1 -1 -1 -2 -3 -3 0 -1 -2 0 -2 -3 -2 1 -1 -1 -2 -3 -2 -1 -5 -1 -3 -2 2 -0 1 4 9 6 2 2
-7 -2 -3 -2 1 -0 -1 -2 0 -1 -1 -1 -0 -1 -1 -2 -1 -0 -1 -1 -1 -1 -4 -2 -1 -1 -3 -2 -2 -1 -4 -4 -3 0 -1 -1 -1 -9 12 1 0 5 5 11
-7 -3 -2 1 2 0 -1 -1 -0 -1 -1 -1 -1 -2 -3 -2 -0 -2 -3 1 0 -1 -0 -0 -3 -1 0 -6 0 1 -3 -2 -1 -1 2 1 -1 -1 -15 -5 4 -1 1 1
0 -5 3 3 -4 1 2 0 1 -1 -2 -1 -1 -2 -0 1 -1 -3 -2 -0 -2 -2 1 -3 -3 -2 -3 -2 -1 -2 1 1 2 4 1 -1 1 1 2 -1 -11 -17 6 4
0 1 2 0 2 1 1 -1 -1 -1 -1 -2 -2 2 1 -2 -2 -1 -1 -2 1 1 0 -2 -1 -3 -1 -2 -3 -1 -2 2 4 -0 1 5 1 -0 2 0 0 -2 -9 2
0 2 1 3 0 -1 1 0 -0 -0 -1 0 3 -0 -4 -3 -1 0 -3 -2 -5 -9 -6 -3 0 -1 -2 -2 -0 -3 0 6 3 -0 -1 -2 1 0 -1 1 0 1 1 2
-7 2 2 1 -0 -0 1 1 1 -1 0 2 -1 -4 -3 1 0 -3 -1 2 -1 -0 -1 0 -0 -4 0 1 0 -0 2 -0 2 -0 1 1 0 -1 2 3 2 1 4 1
3 2 3 4 -3 -2 -2 -2 -1 1 3 -0 -3 -3 1 1 -2 -1 -2 -2 -1 3 -1 -1 -3 2 2 -2 0 2 0 -1 -2 -2 -1 -2 0 5 1 2 3 2 -0 2
2 -1 0 1 1 -1 -2 -1 -0 -0 -1 -3 -0 -0 -0 -3 -2 -1 0 -2 -3 -3 -2 -6 1 3 -3 -3 1 2 -1 -2 -1 -1 1 0 1 -1 2 1 2 2 4 3
-0 2 1 -0 -1 -1 -1 -0 -1 -0 -2 -1 -0 -0 0 -0 -1 -2 0 -4 -4 2 -2 -2 3 -2 -2 -1 1 0 -1 -1 -1 0 -3 2 0 -1 2 3 2 4 2 1
0 0 -1 -1 -1 -0 -1 -1 -2 -1 -2 -2 0 -2 -1 -1 -1 1 0 -6 -1 1 0 3 -0 -3 -2 -1 1 -2 -1 -2 -2 -3 -1 -2 -1 -2 2 2 0 3 1 2
-0 -0 -1 -0 -0 -0 -1 1 0 -1 0 3 -2 -1 -1 -1 -0 2 -2 -4 -1 -3 -1 0 -2 1 -0 0 -2 -3 -1 -0 -0 -2 1 -1 2 -2 2 1 2 2 2 2
1 -1 -0 1 0 -0 0 -2 -1 1 2 -2 -1 -0 0 0 -2 -4 -0 0 1 -3 -0 1 -1 -1 1 -1 -3 -3 -1 -1 -3 0 3 2 3 1 3 2 3 3 2 2
-2 -1 -1 -1 -1 -1 -1 -0 1 1 0 -1 -1 -1 1 3 -2 -3 -0 1 1 -3 -4 -1 -1 2 -0 -3 -3 -2 -1 -0 -4 1 3 5 1 1 3 3 1 3 3 3
-1 -0 -0 0 1 0 2 1 0 -1 -1 -2 -1 2 -0 -2 -1 -1 -0 -0 -0 -2 -1 -0 3 2 -1 -3 -3 -0 -2 -0 -2 1 2 1 1 -3 5 2 2 3 2 3
0 0 2 2 1 2 2 0 -1 -0 -0 -2 1 1 -1 -1 -0 -0 0 0 -1 -2 -2 1 1 0 -3 -4 -3 -0 -2 -2 -3 -3 3 1 1 -2 2 3 2 1 1 2
1 0 1 -0 -1 -2 -0 -0 -1 0 -0 2 1 -0 0 0 -0 1 1 -0 -1 -2 -1 1 2 -0 -3 -3 -1 -1 1 1 -1 0 1 -0 0 1 0 4 3 3 3 1
Height
1535 1535 1535 1536 1536 1537 1540 1533 1536 1508 1520 1507 1515 1517 1519 1521 1522 1522 1522 1521 1519 1517 1514 1511 1507 1502 1498 1494 1489 1483 1476 1470 1464 1459 1455 1449 1444 1438 1432 1426 1422 1417 1413 1409
1541 1534 1536 1536 1527 1527 1528 1525 1521 1514 1510 1512 1514 1516 1517 1519 1519 1519 1518 1517 1516 1513 1510 1507 1502 1498 1493 1488 1483 1477 1472 1466 1460 1454 1448 1443 1437 1431 1425 1419 1414 1410 1406 1402
1535 1535 1536 1531 1508 1513 1516 1513 1511 1516 1506 1508 1512 1514 1516 1516 1515 1516 1516 1514 1512 1509 1506 1502 1498 1494 1488 1483 1478 1472 1466 1461 1454 1448 1443 1437 1431 1425 1419 1413 1407 1402 1398 1395
1537 1536 1532 1502 1500 1501 1505 1502 1503 1503 1506 1506 1508 1511 1513 1513 1513 1514 1513 1511 1508 1505 1502 1498 1494 1489 1485 1480 1474 1468 1462 1456 1450 1443 1437 1430 1424 1418 1412 1406 1400 1395 1390 1387
1534 1533 1515 1499 1501 1503 1502 1498 1496 1498 1503 1505 1508 1509 1512 1511 1511 1511 1509 1508 1505 1502 1498 1493 1488 1484 1479 1474 1469 1464 1458 1451 1445 1439 1431 1424 1418 1411 1405 1398 1393 1388 1384 1379
1534 1530 1515 1491 1497 1497 1498 1506 1494 1495 1500 1503 1506 1509 1509 1509 1508 1507 1505 1504 1502 1499 1495 1490 1484 1479 1474 1469 1465 1458 1453 1446 1439 1433 1426 1419 1412 1405 1398 1393 1386 1381 1376 1373
1521 1518 1505 1488 1493 1496 1500 1492 1492 1494 1497 1500 1504 1505 1506 1507 1507 1505 1502 1500 1497 1494 1490 1486 1481 1475 1470 1464 1458 1453 1448 1441 1433 1427 1420 1413 1405 1399 1392 1386 1380 1374 1369 1364
1522 1520 1507 1485 1494 1494 1488 1489 1492 1494 1497 1499 1502 1504 1504 1503 1502 1501 1499 1496 1493 1488 1485 1481 1478 1473 1467 1462 1454 1447 1442 1435 1427 1420 1413 1406 1399 1392 1386 1380 1373 1367 1362 1356
1495 1487 1479 1480 1480 1482 1485 1487 1490 1492 1495 1496 1498 1500 1501 1500 1499 1498 1496 1493 1489 1485 1481 1477 1472 1468 1461 1457 1450 1442 1436 1429 1420 1413 1406 1400 1394 1386 1379 1374 1367 1361 1356 1350
1482 1475 1475 1477 1479 1482 1485 1487 1488 1491 1494 1495 1496 1497 1498 1497 1497 1496 1494 1489 1486 1483 1477 1473 1469 1465 1459 1452 1447 1438 1430 1422 1415 1407 1400 1394 1387 1382 1374 1367 1362 1356 1350 1345
1478 1476 1475 1477 1477 1480 1483 1485 1487 1490 1493 1494 1495 1495 1495 1495 1494 1492 1490 1486 1482 1479 1475 1470 1465 1460 1455 1449 1443 1433 1425 1418 1410 1402 1395 1386 1381 1375 1368 1362 1358 1352 1346 1341
1463 1463 1466 1471 1474 1478 1480 1482 1485 1487 1490 1492 1493 1493 1493 1492 1491 1489 1488 1484 1479 1474 1471 1468 1463 1456 1450 1445 1439 1430 1421 1412 1406 1398 1390 1382 1374 1364 1362 1356 1349 1344 1339 1335
1456 1461 1464 1468 1472 1475 1478 1480 1483 1485 1487 1489 1490 1490 1490 1488 1487 1487 1486 1482 1477 1472 1468 1464 1459 1454 1447 1440 1435 1427 1418 1409 1402 1394 1385 1378 1370 1362 1351 1344 1344 1338 1333 1328
1455 1459 1467 1468 1470 1474 1477 1479 1482 1484 1486 1487 1487 1487 1486 1485 1484 1483 1482 1478 1473 1470 1466 1461 1456 1451 1444 1438 1431 1423 1414 1407 1399 1391 1383 1375 1367 1360 1353 1345 1336 1330 1328 1324
1456 1459 1461 1465 1470 1473 1477 1478 1480 1481 1483 1485 1485 1484 1482 1482 1481 1478 1477 1475 1473 1467 1464 1458 1452 1447 1442 1435 1427 1419 1410 1403 1395 1387 1379 1373 1365 1357 1351 1344 1337 1331 1324 1320
1458 1461 1463 1467 1471 1474 1476 1478 1480 1481 1481 1483 1482 1481 1482 1480 1479 1477 1474 1473 1468 1464 1462 1456 1450 1445 1439 1433 1425 1416 1409 1401 1392 1384 1376 1369 1362 1355 1349 1342 1336 1330 1325 1319
1456 1462 1465 1468 1471 1474 1477 1479 1480 1481 1480 1480 1478 1479 1479 1477 1475 1475 1472 1469 1466 1463 1459 1456 1449 1442 1438 1432 1423 1415 1406 1397 1390 1382 1375 1368 1362 1355 1349 1343 1336 1330 1325 1320
1458 1459 1463 1466 1469 1473 1476 1478 1480 1481 1480 1477 1478 1478 1478 1475 1473 1471 1469 1466 1464 1461 1457 1453 1448 1442 1437 1430 1423 1415 1405 1397 1389 1382 1375 1368 1362 1356 1349 1343 1337 1332 1327 1323
1459 1461 1463 1466 1469 1471 1475 1478 1478 1479 1478 1477 1476 1476 1475 1473 1472 1471 1468 1464 1462 1457 1453 1450 1447 1441 1435 1428 1423 1414 1405 1397 1389 1382 1376 1369 1363 1356 1351 1344 1339 1334 1329 1325
1460 1463 1465 1468 1470 1473 1475 1477 1478 1477 1477 1476 1476 1475 1473 1471 1469 1468 1466 1464 1463 1458 1452 1449 1445 1439 1434 1429 1423 1415 1406 1398 1391 1384 1377 1371 1364 1358 1352 1347 1341 1336 1332 1327
1461 1464 1467 1469 1471 1473 1474 1475 1475 1475 1475 1475 1474 1473 1472 1470 1468 1465 1461 1461 1461 1456 1452 1448 1444 1438 1434 1429 1424 1416 1408 1401 1393 1386 1379 1373 1366 1360 1355 1349 1344 1340 1335 1332
1463 1465 1469 1470 1471 1472 1473 1475 1474 1474 1474 1472 1471 1471 1470 1469 1467 1465 1461 1459 1457 1454 1451 1447 1442 1440 1435 1430 1425 1418 1412 1404 1396 1389 1383 1376 1370 1363 1359 1353 1348 1344 1340 1338
1465 1466 1468 1469 1470 1471 1472 1473 1474 1473 1471 1470 1470 1469 1468 1466 1463 1464 1462 1459 1456 1453 1451 1447 1442 1439 1434 1430 1426 1421 1415 1407 1400 1394 1388 1381 1374 1368 1363 1358 1354 1350 1347 1344
1465 1467 1468 1469 1469 1470 1471 1472 1472 1471 1469 1469 1468 1468 1468 1466 1462 1463 1461 1458 1456 1453 1450 1446 1443 1438 1434 1431 1427 1423 1417 1411 1404 1399 1393 1386 1379 1373 1369 1363 1359 1355 1353 1351
1464 1466 1467 1468 1468 1469 1470 1470 1470 1469 1468 1468 1468 1467 1465 1464 1463 1462 1459 1457 1455 1453 1450 1447 1443 1439 1435 1432 1428 1424 1420 1415 1409 1404 1398 1391 1385 1379 1375 1370 1366 1362 1359 1357
1463 1465 1466 1467 1467 1468 1468 1467 1467 1467 1466 1467 1466 1465 1463 1463 1462 1460 1458 1456 1455 1452 1450 1447 1443 1439 1436 1432 1429 1426 1422 1418 1413 1408 1403 1398 1392 1386 1381 1377 1372 1369 1366 1364
1462 1464 1465 1465 1466 1466 1467 1466 1465 1465 1465 1465 1464 1463 1463 1462 1460 1459 1457 1456 1454 1452 1450 1447 1444 1440 1437 1434 1431 1427 1424 1420 1416 1412 1408 1403 1398 1393 1388 1384 1380 1376 1373 1370